Regional Weather Roundup
Issued by NWS

Home | Current Version | Previous Version | Text Only | Print | Product List | Glossary On
Versions: 1 2 3 4 5 6 7 8 9 10 11 12 13 14 15 16 17 18 19 20 21 22 23 24 25 26 27 28 29 30 31 32 33 34 35 36 37 38 39 40 41 42 43 44 45 46 47 48 49 50
839
ASUS44 KLIX 012005
RWRLA
LOUISIANA WEATHER ROUNDUP
NATIONAL WEATHER SERVICE NEW ORLEANS LA
300 PM CDT WED OCT 01 2014

NOTE: "FAIR" INDICATES FEW OR NO CLOUDS BELOW 12,000 FEET WITH NO
      SIGNIFICANT WEATHER AND/OR OBSTRUCTIONS TO VISIBILITY.
      SKY/WX - SKY CONDITION AND SIGNIFICANT WEATHER.
      TMP - AIR TEMPERATURE.    DP   - DEWPOINT TEMPERATURE.
      RH  - RELATIVE HUMIDITY.  PRES - PRESSURE.
      HX  - HEAT INDEX.         WCI  - WIND CHILL INDEX.

*  THESE STATIONS ARE NOT NWS OR FAA STATIONS AND ARE NOT UNDER
   NWS QUALITY CONTROL.

LAZ040-048-061>063-065-066-069-012100-
SOUTHEAST LOUISIANA

CITY           SKY/WX    TMP DP  RH WIND       PRES   REMARKS
N.O. AUDUBON     N/A     85  74  70 MISG        N/A
N.O. INTL ARPT PTSUNNY   84  73  69 SE9       29.89F
N.O. LAKEFRONT CLOUDY    83  74  74 SE10      29.90F
N.O. DOWNTOWN* MOCLDY    82  72  69 S8        29.90F
SLIDELL        PTSUNNY   84  72  67 SE9       29.90F
BATON ROUGE    PTSUNNY   84  72  67 SE9       29.87F
BOOTHVILLE     CLOUDY    81  75  82 E6        29.92S
BELLE CHASSE   PTSUNNY   84  72  67 SE12      29.90S
BOGALUSA*      MOCLDY    85  70  61 S7        29.92S
GALLIANO*      NOT AVBL
NEW ROADS*     MOCLDY    86  74  67 SE8       29.87S
GONZALES*      CLOUDY    83  78  83 E8        29.86F
HAMMOND*       PTSUNNY   84  72  65 SE9       29.91S
HOUMA*         PTSUNNY  N/A N/A N/A SE12      29.88F
PORT FOURCHON* MOCLDY    81  77  89 S15G21    29.93S

$$

LAZ041-044-053-054-012100-
SOUTHWEST LOUISIANA

CITY           SKY/WX    TMP DP  RH WIND       PRES   REMARKS
LAKE CHARLES   MOSUNNY   88  74  63 S9        29.82F HX  96
LAFAYETTE      PTSUNNY   87  75  67 S10       29.85F HX  96
PATTERSON      MOSUNNY   86  77  74 SW10      29.89F HX  97
SALT POINT       N/A     85  78  80 VRB5      29.86F HX  96
NEW IBERIA     PTSUNNY   85  76  74 S9        29.86F
CHENAULT AIRPK MOSUNNY   88  75  66 S13G20    29.83F HX  97

$$

LAZ027-028-012100-
CENTRAL LOUISIANA

CITY           SKY/WX    TMP DP  RH WIND       PRES   REMARKS
FORT POLK      MOSUNNY   87  74  66 S10       29.83F HX  95
ALEXANDRIA INT CLOUDY    86  72  62 S9        29.82F
ALEXANDRIA     PTSUNNY   88  73  61 MISG      29.85F HX  95

$$

LAZ001-002-012100-
NORTHWEST LOUISIANA

CITY           SKY/WX    TMP DP  RH WIND       PRES   REMARKS
SHREVEPORT     CLOUDY    87  72  60 SE14      29.80F
BARKSDALE AFB  MOSUNNY   84  72  67 SE13      29.82F
DTN SHREVEPORT MOSUNNY   87  71  58 SE13      29.82F

$$

LAZ014-016-012100-
NORTHEAST LOUISIANA

CITY           SKY/WX    TMP DP  RH WIND       PRES   REMARKS
MONROE         PTSUNNY   88  70  55 S7        29.85F
TALLULAH       MOSUNNY   89  67  47 S13       29.87F

$$




USA.gov is the U.S. government's official web portal to all federal, state and local government web resources and services.